period_start,C,m1,H,J0,J1,J2,J3,J4,J5,JA,JB,JC,JD,JJ,JK,JN,#
2016-06-26 00:00:46,0.01,0.55,0.00,25.07,28.92,31.51,14.43,44.32,1020.06,2030.97,3294.99,2895.58,3282.09,599.66,593.65,38.44,0000 0000 0000 0000 000000
2016-06-26 00:05:47,0.02,0.55,0.00,25.08,28.92,31.53,14.33,44.27,1020.05,2030.99,3294.76,2895.23,3282.02,599.84,593.64,38.49,0000 0000 0000 0000 000000
2016-06-26 00:10:49,0.01,0.55,0.00,25.10,28.92,31.52,14.38,44.22,1020.05,2030.98,3294.09,2895.01,3282.00,599.82,593.81,38.54,0000 0000 0000 0000 000000
2016-06-26 00:15:50,0.00,0.55,0.00,25.12,28.92,31.53,14.39,44.26,1020.06,2030.97,3293.99,2895.00,3281.93,599.75,593.45,38.59,0000 0000 0000 0000 000000
2016-06-26 00:20:51,0.09,0.55,0.00,25.12,28.92,31.54,14.35,44.23,1020.06,2030.97,3293.24,2894.24,3280.94,600.30,594.05,38.64,0000 0000 0000 0000 000000
2016-06-26 00:25:52,0.04,0.56,0.00,25.12,28.92,31.53,14.35,44.15,1020.09,2030.97,3292.02,2893.01,3279.13,600.43,594.22,38.69,0000 0000 0000 0000 000000
2016-06-26 00:30:53,0.00,0.56,0.00,25.12,28.93,31.53,14.44,44.37,1020.11,2030.97,3291.96,2892.97,3279.01,600.31,594.14,38.74,0000 0000 0000 0000 000000
2016-06-26 00:35:55,0.02,0.56,0.00,25.12,28.93,31.55,14.39,44.21,1020.07,2030.96,3291.45,2892.68,3279.00,600.02,593.85,38.79,0000 0000 0000 0000 000000
2016-06-26 00:40:56,0.11,0.56,0.00,25.13,28.94,31.55,14.35,44.15,1020.06,2030.97,3290.40,2891.51,3278.02,599.94,593.69,38.84,0000 0000 0000 0000 000000
2016-06-26 00:45:57,0.04,0.57,0.00,25.13,28.94,31.56,14.34,44.24,1020.06,2030.98,3288.92,2890.02,3276.03,600.21,594.02,38.89,0000 0000 0000 0000 000000
2016-06-26 00:50:58,0.03,0.57,0.00,25.15,28.95,31.56,14.45,44.23,1020.05,2030.98,3288.17,2889.69,3275.68,599.86,593.63,38.94,0000 0000 0000 0000 000000
2016-06-26 00:55:59,0.01,0.57,0.00,25.15,28.95,31.54,14.33,44.24,1020.04,2030.97,3288.00,2889.20,3275.08,599.67,593.46,38.99,0000 0000 0000 0000 000000
2016-06-26 01:01:01,0.00,0.57,0.00,25.17,28.95,31.56,14.35,44.24,1020.04,2030.93,3287.97,2889.01,3275.00,599.96,593.61,39.04,0000 0000 0000 0000 000000
2016-06-26 01:06:02,0.00,0.57,0.00,25.18,28.95,31.55,14.43,44.28,1020.05,2030.96,3287.63,2889.00,3275.00,600.21,593.90,39.09,0000 0000 0000 0000 000000
2016-06-26 01:11:03,0.01,0.57,0.00,25.18,28.95,31.55,14.38,44.26,1020.06,2030.97,3287.26,2889.00,3274.98,599.95,593.65,39.14,0000 0000 0000 0000 000000
2016-06-26 01:16:04,0.00,0.57,0.00,25.19,28.95,31.55,14.39,44.29,1020.05,2030.96,3287.02,2888.98,3274.79,599.81,593.52,39.19,0000 0000 0000 0000 000000
2016-06-26 01:21:05,0.01,0.57,0.00,25.20,28.95,31.56,14.32,44.22,1020.06,2030.92,3287.00,2888.83,3274.16,599.93,593.73,39.24,0000 0000 0000 0000 000000
2016-06-26 01:26:07,0.01,0.58,0.00,25.21,28.96,31.57,14.35,44.13,1020.05,2030.95,3286.95,2888.49,3274.02,600.05,593.75,39.29,0000 0000 0000 0000 000000
2016-06-26 01:31:08,0.02,0.58,0.00,25.22,28.97,31.57,14.32,44.18,1020.07,2030.92,3286.56,2888.13,3274.00,599.63,593.29,39.34,0000 0000 0000 0000 000000
2016-06-26 01:36:10,0.00,0.58,0.00,25.22,28.97,31.58,14.28,44.27,1020.05,2030.89,3286.17,2888.04,3274.00,599.81,593.41,39.40,0000 0000 0000 0000 000000
2016-06-26 01:41:11,0.00,0.58,0.00,25.22,28.97,31.58,14.36,44.19,1020.04,2030.92,3286.01,2888.01,3273.99,599.77,593.37,39.45,0000 0000 0000 0000 000000
2016-06-26 01:46:12,0.00,0.58,0.00,25.22,28.97,31.56,14.31,44.16,1020.04,2030.96,3286.01,2888.00,3273.97,599.67,593.30,39.50,0000 0000 0000 0000 000000
2016-06-26 01:51:14,0.00,0.58,0.00,25.24,28.97,31.59,14.43,44.22,1020.04,2030.94,3285.99,2888.00,3273.89,600.11,593.72,39.55,0000 0000 0000 0000 000000
2016-06-26 01:56:15,0.00,0.58,0.00,25.25,28.97,31.58,14.38,44.20,1020.00,2030.90,3285.98,2887.99,3273.54,599.50,593.08,39.60,0000 0000 0000 0000 000000
2016-06-26 02:01:16,0.02,0.58,0.00,25.25,28.98,31.58,14.34,44.19,1019.87,2030.93,3285.50,2887.93,3273.07,600.19,593.70,39.65,0000 0000 0000 0000 000000
2016-06-26 02:06:18,0.01,0.58,0.00,25.26,28.99,31.58,14.40,44.19,1019.80,2030.92,3285.03,2887.69,3273.01,600.47,593.63,39.70,0000 0000 0000 0000 000000
2016-06-26 02:11:19,0.01,0.58,0.00,25.28,29.00,31.58,14.40,44.26,1019.97,2030.89,3285.00,2887.17,3273.00,599.89,593.38,39.75,0000 0000 0000 0000 000000
2016-06-26 02:16:20,-0.00,0.58,0.00,25.30,29.00,31.59,14.35,44.16,1020.01,2030.89,3284.99,2887.08,3272.99,599.85,593.20,39.80,0000 0000 0000 0000 000000
2016-06-26 02:21:22,0.01,0.58,0.00,25.30,29.00,31.60,14.32,44.23,1020.02,2030.94,3284.99,2887.02,3272.98,600.17,593.46,39.85,0000 0000 0000 0000 000000
2016-06-26 02:26:23,-0.00,0.58,0.00,25.31,29.00,31.61,14.34,44.27,1020.02,2030.85,3284.84,2887.00,3272.88,599.83,593.27,39.90,0000 0000 0000 0000 000000
2016-06-26 02:31:24,0.00,0.58,0.00,25.32,29.00,31.60,14.33,44.25,1019.98,2030.79,3284.41,2887.00,3272.56,599.84,593.20,39.95,0000 0000 0000 0000 000000
2016-06-26 02:36:25,0.02,0.58,0.00,25.33,29.02,31.62,14.34,44.20,1019.75,2030.82,3284.04,2886.99,3272.19,599.90,593.21,40.00,0000 0000 0000 0000 000000
2016-06-26 02:41:26,0.01,0.58,0.00,25.35,29.02,31.61,14.32,44.31,1019.60,2030.82,3283.99,2886.73,3272.00,599.92,592.93,40.05,0000 0000 0000 0000 000000
2016-06-26 02:46:27,0.01,0.58,0.00,25.35,29.02,31.62,14.33,44.27,1019.56,2030.79,3283.95,2886.28,3272.00,599.78,592.94,40.10,0000 0000 0000 0000 000000
2016-06-26 02:51:29,-0.00,0.58,0.00,25.35,29.02,31.62,14.32,44.06,1019.57,2030.74,3283.61,2886.08,3271.97,600.06,593.12,40.15,0000 0000 0000 0000 000000
2016-06-26 02:56:30,0.00,0.58,0.00,25.37,29.04,31.63,14.38,44.21,1019.56,2030.60,3283.11,2886.01,3271.78,600.13,593.10,40.20,0000 0000 0000 0000 000000
2016-06-26 03:01:31,0.01,0.58,0.00,25.37,29.05,31.63,14.40,44.17,1019.55,2030.59,3283.00,2886.00,3271.14,599.97,592.95,40.25,0000 0000 0000 0000 000000
2016-06-26 03:06:32,-0.03,0.58,0.00,25.37,29.05,31.64,14.35,44.08,1019.55,2030.33,3282.97,2885.98,3271.01,600.04,593.15,40.31,0000 0000 0000 0000 000000
2016-06-26 03:11:34,0.00,0.58,0.00,25.38,29.05,31.64,14.31,44.25,1019.55,2030.24,3282.76,2885.93,3271.00,599.90,592.89,40.36,0000 0000 0000 0000 000000
2016-06-26 03:16:35,0.02,0.58,0.00,25.41,29.05,31.65,14.39,44.06,1019.55,2030.38,3282.42,2885.89,3271.00,600.23,593.21,40.41,0000 0000 0000 0000 000000
2016-06-26 03:21:37,0.02,0.58,0.00,25.42,29.05,31.66,14.35,44.22,1019.55,2030.62,3282.27,2885.82,3271.00,600.11,593.04,40.46,0000 0000 0000 0000 000000
2016-06-26 03:26:38,-0.02,0.58,0.00,25.42,29.07,31.65,14.25,44.18,1019.55,2030.22,3282.07,2885.27,3270.96,599.80,592.66,40.51,0000 0000 0000 0000 000000
2016-06-26 03:31:39,-0.00,0.58,0.00,25.42,29.07,31.66,14.36,44.17,1019.53,2030.13,3282.01,2885.14,3270.92,600.16,593.12,40.56,0000 0000 0000 0000 000000
2016-06-26 03:36:40,0.01,0.58,0.00,25.45,29.07,31.66,14.40,44.17,1019.41,2030.14,3282.01,2885.05,3270.83,600.19,592.97,40.61,0000 0000 0000 0000 000000
2016-06-26 03:41:42,-0.00,0.58,0.00,25.45,29.07,31.67,14.34,44.22,1019.37,2030.06,3281.99,2885.01,3270.30,599.91,592.80,40.66,0000 0000 0000 0000 000000
2016-06-26 03:46:43,0.00,0.58,0.00,25.46,29.08,31.68,14.35,44.23,1019.48,2030.06,3281.95,2885.00,3270.07,599.76,592.55,40.71,0000 0000 0000 0000 000000
2016-06-26 03:51:45,-0.00,0.58,0.00,25.47,29.09,31.69,14.28,44.14,1019.53,2030.06,3281.84,2885.00,3270.01,599.74,592.56,40.76,0000 0000 0000 0000 000000
2016-06-26 03:56:46,0.01,0.58,0.00,25.48,29.10,31.68,14.38,44.26,1019.35,2030.03,3281.32,2885.00,3270.00,600.15,592.73,40.81,0000 0000 0000 0000 000000
2016-06-26 04:01:47,0.00,0.58,0.00,25.50,29.10,31.68,14.30,44.12,1019.11,2030.00,3281.04,2884.98,3269.99,600.04,592.50,40.86,0000 0000 0000 0000 000000
2016-06-26 04:06:49,0.00,0.58,0.00,25.52,29.10,31.68,14.37,44.22,1019.09,2030.01,3281.01,2884.91,3269.98,600.37,592.81,40.91,0000 0000 0000 0000 000000
2016-06-26 04:11:50,0.00,0.59,0.00,25.52,29.10,31.70,14.32,44.05,1019.09,2030.00,3281.00,2884.62,3269.94,599.99,592.43,40.96,0000 0000 0000 0000 000000
2016-06-26 04:16:51,0.01,0.59,0.00,25.53,29.11,31.71,14.30,44.19,1019.07,2030.00,3281.00,2884.22,3269.85,599.93,592.36,41.01,0000 0000 0000 0000 000000
2016-06-26 04:21:52,0.01,0.59,0.00,25.54,29.12,31.71,14.35,44.16,1019.07,2030.00,3280.97,2884.13,3269.52,600.04,592.46,41.06,0000 0000 0000 0000 000000
2016-06-26 04:26:53,0.01,0.59,0.00,25.56,29.12,31.72,14.42,44.21,1019.06,2030.00,3280.91,2884.04,3269.18,600.41,592.76,41.11,0000 0000 0000 0000 000000
2016-06-26 04:31:55,0.00,0.59,0.00,25.57,29.12,31.72,14.29,44.05,1019.06,2030.00,3280.73,2884.01,3269.06,599.99,592.36,41.17,0000 0000 0000 0000 000000
2016-06-26 04:36:56,0.01,0.59,0.00,25.57,29.12,31.73,14.29,44.16,1019.06,2030.00,3280.15,2884.00,3269.02,599.56,592.00,41.22,0000 0000 0000 0000 000000
2016-06-26 04:41:57,0.00,0.59,0.00,25.57,29.12,31.74,14.29,44.21,1019.05,2030.00,3280.02,2884.00,3269.01,599.55,591.97,41.27,0000 0000 0000 0000 000000
2016-06-26 04:46:59,0.00,0.59,0.00,25.58,29.13,31.73,14.33,44.30,1019.05,2030.00,3280.00,2883.99,3269.00,600.31,592.62,41.32,0000 0000 0000 0000 000000
2016-06-26 04:52:00,0.00,0.59,0.00,25.59,29.14,31.74,14.30,44.26,1019.04,2030.00,3280.00,2883.99,3268.99,599.66,592.00,41.37,0000 0000 0000 0000 000000
2016-06-26 04:57:01,0.00,0.59,0.00,25.60,29.15,31.74,14.37,44.26,1019.03,2030.00,3280.00,2883.96,3268.97,600.08,592.30,41.42,0000 0000 0000 0000 000000
2016-06-26 05:02:02,0.00,0.59,0.00,25.62,29.15,31.73,14.25,44.29,1019.02,2030.00,3279.99,2883.91,3268.93,599.58,591.79,41.47,0000 0000 0000 0000 000000
2016-06-26 05:07:04,0.01,0.59,0.00,25.62,29.15,31.75,14.32,44.27,1018.96,2029.98,3279.96,2883.63,3268.68,599.89,592.05,41.52,0000 0000 0000 0000 000000
2016-06-26 05:12:05,0.00,0.59,0.00,25.64,29.17,31.76,14.31,44.20,1018.87,2029.98,3279.87,2883.44,3268.55,600.01,591.87,41.57,0000 0000 0000 0000 000000
2016-06-26 05:17:06,0.02,0.59,0.00,25.65,29.17,31.76,14.29,44.27,1018.70,2029.99,3279.52,2883.16,3268.16,599.68,591.61,41.62,0000 0000 0000 0000 000000
2016-06-26 05:22:07,0.00,0.59,0.00,25.65,29.17,31.78,14.35,44.25,1018.70,2029.99,3279.20,2883.10,3268.14,599.87,591.77,41.67,0000 0000 0000 0000 000000
2016-06-26 05:27:09,0.00,0.59,0.00,25.67,29.17,31.79,14.28,44.28,1018.61,2029.97,3279.04,2883.04,3268.02,599.85,591.71,41.72,0000 0000 0000 0000 000000
2016-06-26 05:32:10,0.00,0.59,0.00,25.68,29.19,31.80,14.28,44.29,1018.60,2029.99,3279.03,2883.02,3268.03,600.19,591.97,41.77,0000 0000 0000 0000 000000
2016-06-26 05:37:12,0.00,0.59,0.00,25.70,29.20,31.82,14.32,44.36,1018.58,2029.97,3279.00,2883.00,3268.00,599.86,591.68,41.82,0000 0000 0000 0000 000000
2016-06-26 05:42:13,0.00,0.59,0.00,25.71,29.20,31.79,14.21,44.17,1018.57,2029.98,3278.99,2883.00,3267.98,599.34,591.11,41.87,0000 0000 0000 0000 000000
2016-06-26 05:47:14,0.00,0.59,0.00,25.72,29.21,31.80,14.35,44.17,1018.57,2029.98,3278.92,2882.96,3267.79,600.16,591.93,41.92,0000 0000 0000 0000 000000
2016-06-26 05:52:16,0.01,0.59,0.00,25.74,29.22,31.81,14.28,44.22,1018.57,2029.94,3278.65,2882.89,3267.32,600.18,591.90,41.97,0000 0000 0000 0000 000000
2016-06-26 05:57:17,0.01,0.59,0.00,25.75,29.22,31.82,14.31,44.20,1018.57,2029.96,3278.21,2882.73,3267.16,600.24,591.91,42.02,0000 0000 0000 0000 000000
2016-06-26 06:02:18,0.00,0.59,0.00,25.77,29.25,31.85,14.38,44.33,1018.57,2029.95,3278.08,2882.50,3267.04,600.48,592.13,42.07,0000 0000 0000 0000 000000
2016-06-26 06:07:19,-0.00,0.59,0.00,25.77,29.25,31.86,14.23,44.18,1018.57,2029.94,3278.05,2882.42,3267.01,599.73,591.37,42.12,0000 0000 0000 0000 000000
2016-06-26 06:12:20,0.00,0.59,0.00,25.79,29.26,31.84,14.26,44.24,1018.57,2029.94,3278.01,2882.12,3267.01,599.62,591.24,42.17,0000 0000 0000 0000 000000
2016-06-26 06:17:22,-0.01,0.59,0.00,25.81,29.27,31.85,14.30,44.38,1018.56,2029.87,3278.00,2882.04,3267.00,600.12,591.52,42.23,0000 0000 0000 0000 000000
2016-06-26 06:22:23,-0.03,0.59,0.00,25.82,29.28,31.88,14.24,44.27,1018.57,2029.50,3277.99,2882.00,3266.99,600.03,591.58,42.28,0000 0000 0000 0000 000000
2016-06-26 06:27:24,-0.01,0.59,0.00,25.83,29.30,31.89,14.31,44.38,1018.57,2029.40,3277.98,2882.00,3266.97,599.78,591.27,42.33,0000 0000 0000 0000 000000
2016-06-26 06:32:25,-0.00,0.59,0.00,25.85,29.30,31.90,14.28,44.33,1018.57,2029.25,3277.82,2882.00,3266.87,600.01,591.33,42.38,0000 0000 0000 0000 000000
2016-06-26 06:37:27,0.00,0.59,0.00,25.87,29.31,31.89,14.26,44.25,1018.57,2029.10,3277.44,2881.98,3266.33,600.14,591.65,42.43,0000 0000 0000 0000 000000
2016-06-26 06:42:28,0.00,0.59,0.00,25.88,29.32,31.94,14.27,44.37,1018.57,2029.06,3277.15,2881.97,3266.15,599.92,591.39,42.48,0000 0000 0000 0000 000000
2016-06-26 06:47:29,0.00,0.59,0.00,25.89,29.32,31.95,14.30,44.25,1018.56,2029.05,3277.05,2881.87,3266.06,600.01,591.38,42.53,0000 0000 0000 0000 000000
2016-06-26 06:52:30,0.01,0.59,0.00,25.89,29.33,31.93,14.28,44.19,1018.45,2029.02,3277.00,2881.45,3266.01,599.45,590.78,42.58,0000 0000 0000 0000 000000
2016-06-26 06:57:32,0.00,0.59,0.00,25.91,29.34,31.96,14.21,44.22,1018.17,2029.02,3277.00,2881.26,3266.00,599.43,590.78,42.63,0000 0000 0000 0000 000000
2016-06-26 07:02:33,0.00,0.59,0.00,25.92,29.35,31.96,14.27,44.28,1018.10,2029.02,3277.00,2881.20,3266.00,600.30,591.31,42.68,0000 0000 0000 0000 000000
2016-06-26 07:07:34,0.00,0.59,0.00,25.94,29.35,31.96,14.25,44.30,1018.08,2029.00,3276.99,2881.16,3266.00,599.70,590.83,42.73,0000 0000 0000 0000 000000
2016-06-26 07:12:35,0.00,0.59,0.00,25.94,29.35,31.98,14.32,44.20,1018.08,2029.00,3276.97,2881.02,3265.97,600.15,591.07,42.78,0000 0000 0000 0000 000000
2016-06-26 07:17:36,0.00,0.59,0.00,25.96,29.37,31.97,14.32,44.36,1018.08,2029.00,3276.92,2881.01,3265.97,600.10,591.07,42.83,0000 0000 0000 0000 000000
2016-06-26 07:22:37,0.00,0.59,0.00,25.99,29.37,31.98,14.31,44.18,1018.08,2029.00,3276.68,2881.00,3265.84,600.08,590.87,42.88,0000 0000 0000 0000 000000
2016-06-26 07:27:38,0.01,0.59,0.00,26.02,29.37,31.99,14.38,44.17,1018.08,2029.00,3276.22,2881.00,3265.47,600.15,591.02,42.93,0000 0000 0000 0000 000000
2016-06-26 07:32:39,0.00,0.59,0.00,26.03,29.37,32.03,14.27,44.25,1018.08,2029.00,3276.04,2880.99,3265.16,599.80,590.71,42.98,0000 0000 0000 0000 000000
2016-06-26 07:37:41,0.00,0.59,0.00,26.05,29.39,32.05,14.27,44.16,1018.07,2029.00,3276.00,2880.98,3265.10,599.75,590.51,43.03,0000 0000 0000 0000 000000
2016-06-26 07:42:42,0.00,0.59,0.00,26.06,29.40,32.04,14.25,44.24,1018.05,2029.00,3275.99,2880.94,3265.03,599.88,590.86,43.08,0000 0000 0000 0000 000000
2016-06-26 07:47:43,0.02,0.59,0.00,26.08,29.40,32.05,14.32,44.20,1018.06,2029.00,3275.97,2880.57,3265.00,600.03,590.77,43.13,0000 0000 0000 0000 000000
2016-06-26 07:52:44,0.01,0.60,0.00,26.09,29.40,32.05,14.24,44.21,1017.89,2029.00,3275.76,2880.13,3264.99,599.84,590.48,43.19,0000 0000 0000 0000 000000
2016-06-26 07:57:46,0.00,0.60,0.00,26.11,29.42,32.06,14.22,44.35,1017.67,2029.00,3275.28,2880.05,3264.96,599.54,590.12,43.24,0000 0000 0000 0000 000000
2016-06-26 08:02:47,0.00,0.60,0.00,26.12,29.42,32.05,14.28,44.37,1017.61,2029.00,3275.04,2880.00,3264.75,600.36,590.87,43.29,0000 0000 0000 0000 000000
2016-06-26 08:07:48,0.00,0.60,0.00,26.14,29.44,32.04,14.30,44.26,1017.61,2028.99,3275.05,2880.00,3264.56,600.01,590.41,43.34,0000 0000 0000 0000 000000
2016-06-26 08:12:49,0.01,0.60,0.00,26.14,29.45,32.06,14.30,44.39,1017.61,2028.99,3275.02,2880.00,3264.30,600.10,590.49,43.39,0000 0000 0000 0000 000000
2016-06-26 08:17:50,-0.00,0.60,0.00,26.17,29.46,32.05,14.27,44.45,1017.61,2028.97,3275.00,2880.00,3264.04,600.18,590.47,43.44,0000 0000 0000 0000 000000
2016-06-26 08:22:52,-0.00,0.60,0.00,26.20,29.47,32.09,14.29,44.35,1017.62,2028.96,3275.00,2879.98,3264.01,600.01,590.18,43.49,0000 0000 0000 0000 000000
2016-06-26 08:27:53,-0.00,0.60,0.00,26.21,29.49,32.08,14.28,44.37,1017.61,2028.95,3274.98,2879.97,3264.01,599.88,590.13,43.54,0000 0000 0000 0000 000000
2016-06-26 08:32:54,-0.00,0.60,0.00,26.23,29.50,32.10,14.27,44.38,1017.62,2028.91,3274.94,2879.83,3264.00,600.28,590.46,43.59,0000 0000 0000 0000 000000
2016-06-26 08:37:55,0.00,0.60,0.00,26.24,29.52,32.09,14.28,44.33,1017.59,2028.77,3274.77,2879.54,3263.99,599.97,590.20,43.64,0000 0000 0000 0000 000000
2016-06-26 08:42:57,-0.01,0.60,0.00,26.26,29.52,32.13,14.30,44.25,1017.60,2028.45,3274.15,2879.08,3263.88,599.92,590.09,43.69,0000 0000 0000 0000 000000
2016-06-26 08:47:59,-0.01,0.60,0.00,26.26,29.55,32.15,14.28,44.34,1017.59,2028.17,3274.01,2879.01,3263.58,600.11,590.22,43.74,0000 0000 0000 0000 000000
2016-06-26 08:53:00,-0.00,0.60,0.00,26.27,29.56,32.15,14.22,44.18,1017.59,2028.07,3274.00,2879.00,3263.23,599.93,590.07,43.79,0000 0000 0000 0000 000000
2016-06-26 08:58:01,0.00,0.60,0.00,26.28,29.57,32.16,14.29,44.18,1017.59,2028.03,3273.97,2879.00,3263.04,600.04,590.10,43.84,0000 0000 0000 0000 000000
2016-06-26 09:03:03,0.00,0.60,0.00,26.28,29.59,32.21,14.26,44.35,1017.58,2028.02,3273.95,2879.00,3263.00,599.94,590.05,43.89,0000 0000 0000 0000 000000
2016-06-26 09:08:04,0.00,0.60,0.00,26.29,29.60,32.21,14.28,44.26,1017.58,2028.00,3273.72,2878.98,3263.00,600.15,590.24,43.94,0000 0000 0000 0000 000000
2016-06-26 09:13:05,0.01,0.60,0.00,26.30,29.62,32.22,14.24,44.32,1017.59,2028.00,3273.21,2878.86,3262.97,599.80,589.76,43.99,0000 0000 0000 0000 000000
2016-06-26 09:18:06,0.00,0.60,0.00,26.32,29.63,32.24,14.25,44.18,1017.59,2028.00,3273.03,2878.75,3262.95,599.89,589.70,44.04,0000 0000 0000 0000 000000
2016-06-26 09:23:08,0.02,0.60,0.00,26.34,29.65,32.25,14.23,44.31,1017.59,2027.99,3273.00,2878.16,3262.72,599.91,589.86,44.09,0000 0000 0000 0000 000000
2016-06-26 09:28:09,0.01,0.60,0.00,26.35,29.66,32.25,14.22,44.27,1017.59,2027.98,3273.00,2878.04,3262.18,599.94,589.92,44.15,0000 0000 0000 0000 000000
2016-06-26 09:33:10,0.00,0.60,0.00,26.35,29.67,32.28,14.14,44.27,1017.59,2027.98,3272.98,2878.00,3262.03,599.68,589.53,44.20,0000 0000 0000 0000 000000
2016-06-26 09:38:11,0.00,0.60,0.00,26.37,29.69,32.27,14.18,44.23,1017.59,2027.92,3272.78,2878.00,3262.00,599.63,589.62,44.25,0000 0000 0000 0000 000000
2016-06-26 09:43:13,-0.01,0.60,0.00,26.37,29.70,32.27,14.29,44.27,1017.56,2027.77,3272.32,2877.98,3261.99,600.03,589.96,44.30,0000 0000 0000 0000 000000
2016-06-26 09:48:14,-0.03,0.60,0.00,26.40,29.72,32.29,14.25,44.18,1017.57,2027.35,3272.03,2877.94,3261.95,600.01,589.80,44.35,0000 0000 0000 0000 000000
2016-06-26 09:53:15,0.01,0.60,0.00,26.41,29.73,32.32,14.22,44.23,1017.54,2027.25,3272.00,2877.66,3261.69,600.02,589.84,44.40,0000 0000 0000 0000 000000
2016-06-26 09:58:16,0.01,0.60,0.00,26.43,29.75,32.29,14.32,44.30,1017.54,2027.14,3271.99,2877.24,3261.21,600.20,590.09,44.45,0000 0000 0000 0000 000000
2016-06-26 10:03:18,0.00,0.60,0.00,26.44,29.77,32.31,14.31,44.23,1017.51,2027.09,3271.98,2877.06,3261.03,600.14,589.87,44.50,0000 0000 0000 0000 000000
2016-06-26 10:08:19,-0.00,0.60,0.00,26.46,29.77,32.34,14.30,44.24,1017.27,2027.03,3271.82,2877.01,3261.01,600.01,589.51,44.55,0000 0000 0000 0000 000000
2016-06-26 10:13:20,0.00,0.60,0.00,26.45,29.80,32.30,14.16,44.12,1017.15,2027.00,3271.33,2877.00,3261.00,599.64,589.13,44.60,0000 0000 0000 0000 000000
2016-06-26 10:18:21,0.00,0.60,0.00,26.48,29.82,32.33,14.19,44.15,1017.14,2027.00,3271.04,2876.99,3260.95,599.95,589.23,44.65,0000 0000 0000 0000 000000
2016-06-26 10:23:22,0.00,0.60,0.00,26.50,29.84,32.33,14.24,44.29,1017.13,2027.00,3271.00,2876.96,3260.78,599.83,589.26,44.70,0000 0000 0000 0000 000000
2016-06-26 10:28:24,0.02,0.60,0.00,26.52,29.86,32.34,14.22,44.14,1017.12,2027.00,3271.00,2876.67,3260.19,600.11,589.40,44.75,0000 0000 0000 0000 000000
2016-06-26 10:33:25,0.01,0.60,0.00,26.57,29.89,32.36,14.27,44.08,1017.11,2026.98,3270.93,2876.07,3260.02,600.06,589.26,44.80,0000 0000 0000 0000 000000
2016-06-26 10:38:26,0.00,0.60,0.00,26.59,29.91,32.38,14.24,44.13,1017.11,2026.96,3270.79,2876.01,3260.00,599.91,589.02,44.85,0000 0000 0000 0000 000000
2016-06-26 10:43:28,0.03,0.60,0.00,26.63,29.94,32.40,14.20,43.99,1017.11,2026.95,3270.19,2875.75,3259.68,599.97,589.07,44.90,0000 0000 0000 0000 000000
2016-06-26 10:48:29,0.02,0.60,0.00,26.66,29.96,32.42,14.17,44.11,1017.11,2026.78,3269.45,2875.02,3258.96,599.75,588.80,44.95,0000 0000 0000 0000 000000
2016-06-26 10:53:30,-0.04,0.60,0.00,26.68,29.99,32.45,14.20,44.02,1017.10,2026.41,3269.05,2875.00,3258.54,599.90,588.88,45.00,0000 0000 0000 0000 000000
2016-06-26 10:58:31,-0.00,0.60,0.00,26.70,30.01,32.48,14.21,44.08,1017.10,2026.08,3269.00,2874.86,3258.05,600.04,589.03,45.06,0000 0000 0000 0000 000000
2016-06-26 11:03:33,0.01,0.60,0.00,26.73,30.04,32.51,14.16,44.09,1017.10,2026.02,3268.95,2874.34,3258.00,599.82,588.70,45.11,0000 0000 0000 0000 000000
2016-06-26 11:08:34,0.01,0.60,0.00,26.76,30.07,32.54,14.14,44.11,1017.06,2026.00,3268.60,2874.03,3257.97,599.60,588.47,45.16,0000 0000 0000 0000 000000
2016-06-26 11:13:35,0.01,0.60,0.00,26.78,30.10,32.56,14.26,44.10,1017.02,2026.00,3268.09,2874.00,3257.61,600.30,589.11,45.21,0000 0000 0000 0000 000000
2016-06-26 11:18:36,0.01,0.60,0.00,26.81,30.12,32.59,14.26,44.10,1016.90,2025.99,3267.85,2873.86,3257.06,599.86,588.49,45.26,0000 0000 0000 0000 000000
2016-06-26 11:23:38,0.07,0.60,0.00,26.82,30.15,32.61,14.22,44.17,1016.95,2025.96,3266.84,2872.86,3256.41,600.25,588.78,45.31,0000 0000 0000 0000 000000
2016-06-26 11:28:39,0.03,0.61,0.00,26.81,30.17,32.64,14.17,44.11,1016.85,2025.90,3265.99,2871.95,3255.00,599.50,588.10,45.36,0000 0000 0000 0000 000000
2016-06-26 11:33:40,-0.01,0.61,0.00,26.79,30.20,32.67,14.14,44.07,1016.73,2025.56,3265.59,2871.55,3254.67,599.41,587.96,45.41,0000 0000 0000 0000 000000
2016-06-26 11:38:41,-0.00,0.61,0.00,26.78,30.21,32.72,14.19,43.99,1016.65,2025.17,3265.06,2871.08,3254.08,600.20,588.77,45.46,0000 0000 0000 0000 000000
2016-06-26 11:43:42,-0.00,0.61,0.00,26.73,30.23,32.74,14.26,44.05,1016.62,2025.06,3265.00,2871.01,3254.01,600.28,588.82,45.51,0000 0000 0000 0000 000000
2016-06-26 11:48:44,-0.00,0.61,0.00,26.71,30.25,32.77,14.19,44.06,1016.62,2025.04,3264.99,2871.00,3254.00,600.06,588.63,45.56,0000 0000 0000 0000 000000
2016-06-26 11:53:45,0.00,0.61,0.00,26.70,30.25,32.87,14.18,44.08,1016.62,2025.01,3264.84,2870.99,3253.99,599.74,588.47,45.61,0000 0000 0000 0000 000000
2016-06-26 11:58:47,0.00,0.61,0.00,26.68,30.27,32.90,14.22,44.17,1016.62,2025.00,3264.36,2870.96,3253.94,600.11,588.76,45.66,0000 0000 0000 0000 000000
2016-06-26 12:03:48,0.01,0.61,0.00,26.66,30.27,32.91,14.21,44.15,1016.62,2025.00,3264.05,2870.80,3253.77,599.85,588.58,45.71,0000 0000 0000 0000 000000
2016-06-26 12:08:49,0.01,0.61,0.00,26.64,30.27,32.94,14.25,44.20,1016.57,2025.00,3264.00,2870.43,3253.35,599.88,588.63,45.76,0000 0000 0000 0000 000000
2016-06-26 12:13:51,0.01,0.61,0.00,26.62,30.29,33.01,14.29,44.18,1016.59,2025.00,3263.99,2870.14,3253.10,599.94,588.75,45.81,0000 0000 0000 0000 000000
2016-06-26 12:18:53,0.00,0.61,0.00,26.62,30.30,33.00,14.22,44.13,1016.57,2025.00,3263.99,2870.05,3253.01,600.41,589.18,45.86,0000 0000 0000 0000 000000
2016-06-26 12:23:54,0.00,0.61,0.00,26.60,30.30,33.06,14.22,44.23,1016.45,2025.00,3263.97,2870.01,3253.00,599.83,588.58,45.91,0000 0000 0000 0000 000000
2016-06-26 12:28:55,0.00,0.61,0.00,26.57,30.30,33.03,14.21,44.09,1016.50,2025.00,3263.65,2870.00,3253.00,599.84,588.76,45.97,0000 0000 0000 0000 000000
2016-06-26 12:33:57,0.00,0.61,0.00,26.55,30.30,33.10,14.31,44.33,1016.26,2025.00,3263.17,2870.00,3253.00,599.67,588.51,46.02,0000 0000 0000 0000 000000
2016-06-26 12:38:58,0.00,0.61,0.00,26.57,30.30,33.09,14.17,44.11,1016.18,2025.00,3263.07,2870.00,3252.99,599.66,588.35,46.07,0000 0000 0000 0000 000000
2016-06-26 12:43:59,0.00,0.61,0.00,26.56,30.30,33.10,14.23,44.17,1016.18,2025.00,3263.01,2869.99,3252.96,599.96,588.65,46.12,0000 0000 0000 0000 000000
2016-06-26 12:49:00,0.00,0.61,0.00,26.54,30.30,33.08,14.31,44.13,1016.17,2025.00,3263.01,2869.99,3252.94,600.46,589.07,46.17,0000 0000 0000 0000 000000
2016-06-26 12:54:01,0.00,0.61,0.00,26.52,30.30,33.10,14.29,44.13,1016.15,2025.00,3263.00,2869.99,3252.95,600.01,588.79,46.22,0000 0000 0000 0000 000000